This demonstration page uses our WeatherBlox Daily Observations layout. Learn more.

Left ArrowRight Arrow

Hourly Observations for August 2, 2018

Temp ( °F °C ) Dew Point ( °F °C ) Humidity (%) Winds ( mph kmh ) Pressure ( in mb ) Visibility ( mi km ) Precip ( " mm )
12:17 am 00:17 Clear 61 16 61 16 100 100 N N/A 30.06 1018 5 8 N/A
12:37 am 00:37 Clear 63 17 63 17 100 100 N N/A 30.06 1018 7 11 N/A
12:56 am 00:56 Clear 61 16 61 16 100 100 N N/A 30.03 1017 10 16 N/A
1:17 am 01:17 Clear 59 15 59 15 100 100 N N/A 30.06 1018 7 11 N/A
1:36 am 01:36 Mostly Cloudy 59 15 59 15 100 100 N N/A 30.06 1018 1 2 N/A
1:57 am 01:57 Mostly Cloudy 59 15 59 15 100 100 N N/A 30.06 1018 1 1 N/A
2:17 am 02:17 Mostly Cloudy 59 15 59 15 100 100 N N/A 30.06 1018 2 3 N/A
2:36 am 02:36 Mostly Cloudy 61 16 61 16 100 100 N N/A 30.06 1018 1 2 N/A
2:57 am 02:57 Mostly Cloudy 59 15 59 15 100 100 N N/A 30.06 1018 1 2 N/A
3:16 am 03:16 Mostly Cloudy 61 16 61 16 100 100 N N/A 30.03 1017 1 1 N/A
3:37 am 03:37 Mostly Cloudy 59 15 59 15 100 100 N N/A 30.03 1017 1 2 N/A
3:57 am 03:57 Mostly Cloudy 59 15 59 15 100 100 N N/A 30.03 1017 1 2 N/A
4:16 am 04:16 Clear 59 15 59 15 100 100 N N/A 30.03 1017 2 3 N/A
4:37 am 04:37 Mostly Cloudy 59 15 59 15 100 100 N N/A 30.03 1017 1 1 N/A
4:56 am 04:56 undefined 59 15 59 15 100 100 N N/A 30.03 1017 N/A N/A
5:17 am 05:17 Mostly Cloudy 57 14 57 14 100 100 N N/A 30.06 1018 0 0 N/A
5:37 am 05:37 Mostly Cloudy 59 15 59 15 100 100 N N/A 30.03 1017 1 1 N/A
5:56 am 05:56 Mostly Cloudy 59 15 59 15 100 100 S 3 6 30.03 1017 0 0 N/A
6:17 am 06:17 Mostly Cloudy 59 15 59 15 100 100 N N/A 30.06 1018 1 1 N/A
6:36 am 06:36 Cloudy 59 15 59 15 100 100 N N/A 30.06 1018 0 0 N/A
6:57 am 06:57 Cloudy 59 15 59 15 100 100 N N/A 30.06 1018 0 0 N/A
7:16 am 07:16 Cloudy 59 15 59 15 100 100 N N/A 30.06 1018 0 0 N/A
7:36 am 07:36 Mostly Cloudy 57 14 57 14 100 100 N N/A 30.06 1018 1 1 N/A
7:57 am 07:57 Mostly Cloudy 59 15 59 15 100 100 N N/A 30.09 1019 0 0 N/A
8:16 am 08:16 Sunny 63 17 63 17 100 100 N N/A 30.09 1019 3 4 N/A
8:37 am 08:37 Sunny 63 17 63 17 100 100 N N/A 30.09 1019 3 4 N/A
8:56 am 08:56 Sunny 66 19 66 19 100 100 N N/A 30.09 1019 5 8 N/A
9:17 am 09:17 Sunny 66 19 66 19 100 100 N N/A 30.09 1019 10 16 N/A
9:37 am 09:37 Sunny 68 20 68 20 100 100 N N/A 30.09 1019 10 16 N/A
9:56 am 09:56 Sunny 70 21 70 21 100 100 N N/A 30.09 1019 10 16 N/A
10:17 am 10:17 Sunny 72 22 72 22 100 100 N N/A 30.06 1018 10 16 N/A
10:36 am 10:36 Sunny 73 23 72 22 94 94 SSW 3 6 30.06 1018 10 16 N/A
10:57 am 10:57 Sunny 73 23 72 22 94 94 SW 6 9 30.06 1018 10 16 N/A
11:16 am 11:16 Sunny 77 25 70 21 79 79 SW 3 6 30.06 1018 10 16 N/A
11:37 am 11:37 Sunny 77 25 70 21 79 79 W 7 11 30.06 1018 10 16 N/A
11:56 am 11:56 Sunny 77 25 70 21 79 79 WSW 3 6 30.06 1018 10 16 N/A
12:17 pm 12:17 Sunny 79 26 68 20 70 70 SW 5 7 30.06 1018 10 16 N/A
12:36 pm 12:36 Sunny 79 26 68 20 70 70 SW 3 6 30.06 1018 10 16 N/A
12:57 pm 12:57 Sunny 79 26 70 21 74 74 SSE 8 13 30.06 1018 10 16 N/A
1:16 pm 13:16 Sunny 79 26 70 21 74 74 WSW 6 9 30.03 1017 10 16 N/A
1:36 pm 13:36 Partly Cloudy 81 27 68 20 66 66 S 6 9 30.03 1017 10 16 N/A
1:57 pm 13:57 Sunny 81 27 68 20 66 66 SSW 7 11 30.03 1017 10 16 N/A
2:16 pm 14:16 Sunny 81 27 68 20 66 66 S 7 11 30.03 1017 10 16 N/A
2:37 pm 14:37 Sunny 81 27 70 21 70 70 S 8 13 30.03 1017 10 16 N/A
2:56 pm 14:56 Sunny 81 27 70 21 70 70 S 8 13 30.03 1017 10 16 N/A
3:17 pm 15:17 Sunny 81 27 70 21 70 70 S 7 11 30.03 1017 10 16 N/A
3:36 pm 15:36 Sunny 81 27 70 21 70 70 SSE 6 9 30.03 1017 10 16 N/A
3:57 pm 15:57 Sunny 81 27 70 21 70 70 S 5 7 30.03 1017 10 16 N/A
4:16 pm 16:16 Sunny 81 27 70 21 70 70 S 6 9 30.03 1017 10 16 N/A
4:37 pm 16:37 Sunny 82 28 70 21 66 66 S 5 7 30.00 1016 10 16 N/A
4:56 pm 16:56 Sunny 81 27 70 21 70 70 S 8 13 30.00 1016 10 16 N/A
5:17 pm 17:17 Sunny 81 27 70 21 70 70 S 7 11 30.00 1016 10 16 N/A
5:36 pm 17:36 Sunny 81 27 70 21 70 70 S 9 15 30.00 1016 10 16 N/A
5:57 pm 17:57 Sunny 81 27 68 20 66 66 S 8 13 30.00 1016 10 16 N/A
6:16 pm 18:16 Sunny 81 27 68 20 66 66 S 8 13 30.00 1016 10 16 N/A
6:37 pm 18:37 Sunny 81 27 68 20 66 66 S 7 11 30.00 1016 10 16 N/A
6:57 pm 18:57 Sunny 79 26 70 21 74 74 S 8 13 30.00 1016 10 16 N/A
7:16 pm 19:16 Sunny 79 26 70 21 74 74 S 7 11 30.00 1016 10 16 N/A
7:37 pm 19:37 Sunny 79 26 70 21 74 74 S 3 6 30.00 1016 10 16 N/A
7:56 pm 19:56 Sunny 77 25 70 21 79 79 S 5 7 30.00 1016 10 16 N/A
8:17 pm 20:17 Sunny 77 25 70 21 79 79 S 3 6 30.00 1016 10 16 N/A
8:36 pm 20:36 Sunny 75 24 70 21 83 83 S 3 6 30.00 1016 10 16 N/A
8:57 pm 20:57 Clear 73 23 70 21 89 89 N N/A 30.00 1016 10 16 N/A
9:16 pm 21:16 Clear 72 22 68 20 88 88 N N/A 30.00 1016 10 16 N/A
9:37 pm 21:37 Clear 70 21 68 20 94 94 S 3 6 30.06 1018 10 16 N/A
9:56 pm 21:56 Clear 70 21 68 20 94 94 N N/A 30.06 1018 10 16 N/A
10:17 pm 22:17 Clear 70 21 68 20 94 94 N N/A 30.06 1018 10 16 N/A
10:37 pm 22:37 Clear 70 21 68 20 94 94 N N/A 30.06 1018 10 16 N/A
10:56 pm 22:56 Clear 68 20 68 20 100 100 S 3 6 30.06 1018 10 16 N/A
11:17 pm 23:17 Clear 68 20 68 20 100 100 S 3 6 30.06 1018 10 16 N/A
11:36 pm 23:36 Clear 68 20 68 20 100 100 S 6 9 30.06 1018 10 16 N/A
11:57 pm 23:57 Clear 68 20 68 20 100 100 N N/A 30.06 1018 10 16 N/A

Powered by AerisWeather